Regional Weather Roundup
Issued by NWS

Home | Current Version | Previous Version | Text Only | Print | Product List | Glossary Off
Versions: 1 2 3 4 5 6 7 8 9 10 11 12 13 14 15 16 17 18 19 20 21 22 23 24 25 26 27 28 29 30 31 32 33 34 35 36 37 38 39 40 41 42 43 44 45 46 47 48 49 50

542
ASUS43 KLOT 290808
RWRIL

ILLINOIS REGIONAL WEATHER ROUNDUP
NATIONAL WEATHER SERVICE CHICAGO/ROMEOVILLE IL
300 AM CDT WED MAR 29 2017

NOTE: "FAIR" INDICATES FEW OR NO CLOUDS BELOW 12,000 FEET WITH NO
SIGNIFICANT WEATHER AND/OR OBSTRUCTIONS TO VISIBILITY.

* THESE STATIONS ARE NOT UNDER NWS QUALITY CONTROL. THEY ALSO MAY NOT
  REPORT WEATHER SUCH AS PRECIPITATION OR FOG.

ILZ001-002-007-009-015-016-024-290900-
NORTHWEST ILLINOIS

CITY           SKY/WX    TMP DP  RH WIND       PRES   REMARKS
MOLINE         CLOUDY    41  37  86 E14       30.16F
STERLING*      CLOUDY    42  40  92 E8        30.20S
SAVANNA*       CLOUDY    41  38  89 E7        30.20F
$$

ILZ003-004-008-010-011-017-018-290900-
NORTH CENTRAL ILLINOIS

CITY           SKY/WX    TMP DP  RH WIND       PRES   REMARKS
ROCKFORD       PTCLDY    37  34  89 E8        30.24R WCI  31
FREEPORT*      CLEAR     35  34  96 NE3       30.23R
ROCHELLE*      CLEAR     37  36  95 E6        30.22R WCI  32
DE KALB*       CLOUDY    37  36  97 E10       30.21R FOG     WCI  30
PERU*          CLOUDY    43  39  87 E12       30.19S
$$

ILZ005-006-012>014-019>023-290900-
NORTHEAST ILLINOIS

CITY           SKY/WX    TMP DP  RH WIND       PRES   REMARKS
CHICAGO-OHARE  FOG       36  34  92 NE9       30.21F VSB 3/4 WCI  29
CHICAGO-MIDWAY CLOUDY    37  35  92 NE15G22   30.21F FOG     WCI  28
AURORA         CLOUDY    38  35  89 E13       30.21R FOG     WCI  30
LANSING*       FOG       35  35 100 NE9       30.20F VSB 1   WCI  28
JOLIET*        CLOUDY    39  38  95 NE9       30.22R WCI  33
WAUKEGAN       FOG       33  33 100 CALM      30.23R VSB 1/4
DUPAGE AIRPORT CLOUDY    36  36 100 NE6       30.21S FOG     WCI  31
KANKAKEE*      CLOUDY    42  40  91 NE8       30.19R
WHEELING       FOG       33  33 100 NE5       30.24S VSB 3/4 WCI  29
MORRIS*        CLOUDY    39  37  92 NE3       30.20R
ROMEOVILLE*    CLOUDY    37  37 100 NE7       30.21R FOG     WCI  32
NORTHERLY ISL    N/A     34  33  96 NE12        N/A  WCI  25
$$

LMZ740>746-290900-
SOUTHERN LAKE MICHIGAN

STATION/POSITION SKY/WX   TEMP    WIND        PRES    VSBY  WAVE
                          AIR SEA DIR/SP/G                  HT/PER
                          (F)     (DEG/KT/KT) (MB)    (MI)  (FT/S)
HARRISON CRIB              34      30/ 10/ 11   N/A
BURNHAM HARBOR             34      30/ 10/ 10   N/A
CALUMET HARBOR             34      30/  8/ 10 1022.6F
BURNS HARBOR               36      80/ 11/ 12 1023.7F
MICHIGAN CITY              35      70/  5/  6   N/A
$$

ILZ025>027-034>036-040-047-049-050-058-095>099-290900-
WEST-CENTRAL ILLINOIS

CITY           SKY/WX    TMP DP  RH WIND       PRES   REMARKS
QUINCY         CLOUDY    47  43  86 E12       30.09F
GALESBURG*     CLOUDY    41  38  91 E10       30.15S
MACOMB*        CLOUDY    40  39  97 E7        30.16F
JACKSONVILLE*  CLOUDY    46  42  86 NE10      30.12F
PITTSFIELD*    CLOUDY    48  45  88 NE9       30.11F
$$

ILZ028>032-037-038-041>044-048-051>054-059>061-290900-
CENTRAL ILLINOIS

CITY           SKY/WX    TMP DP  RH WIND       PRES   REMARKS
PONTIAC        CLOUDY    44  43  97 NE12      30.18S
BLOOMINGTON    CLOUDY    42  41  96 NE10      30.16R FOG
DECATUR        CLOUDY    44  40  85 E8        30.15R
PEORIA         CLOUDY    43  40  89 E6        30.16S
LACON*         CLOUDY    42  40  95 E7        30.16F
LINCOLN*       CLOUDY    44  42  95 NE6       30.16R
SPRINGFIELD    CLOUDY    44  40  85 NE8       30.14F
TAYLORVILLE    CLOUDY    43  41  93 E9        30.13S
$$

ILZ033-039-045-046-055>057-062-063-290900-
EAST-CENTRAL ILLINOIS

CITY           SKY/WX    TMP DP  RH WIND       PRES   REMARKS
CHAMPAIGN      CLOUDY    45  41  86 NE12      30.13F
RANTOUL*       CLOUDY    46  44  94 NE10      30.14F FOG
MATTOON        PTCLDY    40  40 100 N3        30.12R FOG
PARIS*         CLOUDY    46  44  90 NE5       30.13F
$$

ILZ079-100>102-290900-
SOUTHWEST ILLINOIS

CITY           SKY/WX    TMP DP  RH WIND       PRES   REMARKS
ALTON          CLOUDY    49  44  83 NE5       30.09F
BELLEVILLE     CLOUDY    50  48  92 NE7       30.07F
CAHOKIA*       CLOUDY    53  45  74 E9        30.08F
SPARTA*        CLOUDY    50  46  86 NE9       30.07F
$$

ILZ064>066-069>071-074>076-080>082-084>086-088>090-092>094-290900-
SOUTH-CENTRAL ILLINOIS

CITY           SKY/WX    TMP DP  RH WIND       PRES   REMARKS
CARBONDALE     CLEAR     50  48  93 NE6       30.06S
CAIRO*         CLEAR     50  49  96 NE5       30.04S
EFFINGHAM*     PTCLDY    44  43  94 N3        30.14R
MARION         PTCLDY    48  48 100 N5        30.07S
MT. VERNON     PTCLDY    49  46  90 NE12      30.08F
CENTRALIA*     CLEAR     48  46  90 NE5       30.09S
SALEM*         PTCLDY    48  44  86 NE5       30.11R
METROPOLIS*    CLEAR     51  50  97 CALM      30.04F FOG
$$

ILZ067-068-072-073-078-083-087-091-290900-
SOUTHEAST ILLINOIS

CITY           SKY/WX    TMP DP  RH WIND       PRES   REMARKS
LAWRENCEVILLE  CLEAR     48  46  93 NE10      30.10F
FLORA*         PTCLDY    48  45  88 NE5       30.10S
FAIRFIELD*     CLOUDY    50  47  91 NE5       30.09S
HARRISBURG*    CLEAR     52  50  93 NE3       30.07S
ROBINSON*      CLEAR     47  44  89 NE7       30.12F
CARMI*         CLOUDY    52  50  92 N7        30.08S
$$

ABBREVIATIONS USED IN REMARKS
   TC - TEMPERATURE IN CELSIUS
  WCI - WIND CHILL INDEX
   HX - HEAT INDEX
  VSB - VISIBILITY
$$





USA.gov is the U.S. government's official web portal to all federal, state and local government web resources and services.